Aeroporto :
LOGIN :

Iscrizione | Disclaimer

   EN    FR    IT 

 










Sommario :    VFR   VFR Marginale   IFR   IFR Intensivo   IFR Molto Intensivo
Visibilità : 
Base nubi : 
>= 8 km
>= 3000ft
5 / 8 km
1000 / 3000 ft
1500m / 5 km
500 / 1000 ft
800 / 1500m
200 / 500 ft
< 800m
< 200 ft
Simboli :   Temporali  Nebbia  Neve Forte  Precipitazioni Forti  Vento > 20 kt
SIGMETs :   Varie  Temporali  Ghiacco  Turbolenza  Onda orograficha  Ceneri Vulcaniche






- Altitudine del aeroporto : 682 ft
- Codice IATA : VTB


UMII - Vitebsk

ULTIMO METAR :
  • 291400Z 16003G06MPS 7000 OVC016 10/07 Q1014 R23/D TEMPO SCT005

METARs OBSOLETI :
  • 291300Z 17003G06MPS 7000 OVC019 11/07 Q1014 R23/CLRD// NOSIG
  • 291200Z 17003G06MPS 7000 BKN018 11/08 Q1014 R23/D NOSIG

TAF TAF UMII
Valido dal 29 a 12 ore il 29 a 21 ore UTC


291109Z 2912/2921 16006MPS 6000 BKN015
TEMPO 2912/2921 VRB09MPS 3000 -SHRA BR SCT005 BKN017CB



MetMap, La meteo Aeronautica in un colpo d'occhio ! - Copyright ORBIFLY Dicembre 2007 - Disclaimer

ORBIFLY MET'MAP TEAM :

Programmazione e sviluppo : Alexandra Zaïnal
Concezione : Baudouin d'Aumeries
Aiuto per la programmazione : Marc-Olivier Méhu
Supporto tecnico e logistico : Manuel Goepfert
Aiuto per la traduzione : Arnaldo La Scala

Contatto : metmap@orbifly.com




FONTI E CREDITI :

   NOAA